Starlink 11440

operational
NORAD ID: 62513 Int'l Des: 2025-004 Owner: SPXS Country: US Constellation: starlink
LEOCIRCULAR

Über Starlink 11440

Beschreibung wird geladen...

Live-Position

3D-Globus wird geladen...

Nächste Überflüge

Höhenverlauf

Altitude vs Time

uPlot chart will show altitude changes over time

Zweizeiliger Elementsatz

1 62513U 25004C 26035.03714903 .00265809 00000-0 20043-2 0 9992
2 62513 42.9996 273.7746 0001716 273.1854 86.8817 15.70901612 61916
Epoch: 4. Feb. 2026 • Age: 13 hours

Aktueller Status

Höhe 355.1 km
Geschwindigkeit 7.70 km/s
Subsatellitenpunkt 4.00°N, 103.97°E
Startdatum 8. Jan. 2025
Alter 1 years
Typ internet

Technische Details

Klassifizierung Payload
Masse 960.00 kg
Trockenmasse 910.00 kg
Gesamtmasse 960.00 kg
Länge 0.30 m
Durchmesser 4.10 m
Spannweite 29.00 m
Form Box + pan
Hersteller SPXS
Bus-Typ Starlink V2MD
Phasenstatus In Orbit
Besitzer/Staat SPXS/US

Große Konstellationen

Loading constellations...